Erzurum, Turkey

2:17 PM +03 on April 22, 2018 (GMT +0300)
Erzurum

Weather History for LTCE - June, 2013

Change the Weather History Date:

Thursday, June 13, 2013

  Actual Average Record
Temperature  
Mean Temperature 61 °F -  
Max Temperature 79 °F 74 °F 79 °F (2012)
Min Temperature 43 °F 49 °F 33 °F (2004)
Degree Days  
Heating Degree Days 4    
Growing Degree Days 11 (Base 50)    
Moisture  
Dew Point 45 °F    
Average Humidity 59    
Maximum Humidity 93    
Minimum Humidity 17    
Precipitation  
Precipitation 0.00 in 0.05 in - ()
Sea Level Pressure  
Sea Level Pressure 29.96 in    
Wind  
Wind Speed 6 mph ()    
Max Wind Speed 18 mph    
Max Gust Speed -    
Visibility 7.0 miles    
Events Rain    
Averages and records for this station are not official NWS values.
T = Trace of Precipitation, MM = Missing Value Source: Averaged Metar Reports

Daily Weather History Graph

Daily Weather History Graph

Search for Another Location

Airport or City:

Astronomy

Jun. 13, 2013 Rise Set
Actual Time 4:46 AM EEST 7:44 PM EEST
Civil Twilight 4:13 AM EEST 8:17 PM EEST
Nautical Twilight 3:31 AM EEST 8:59 PM EEST
Astronomical Twilight 2:43 AM EEST 9:47 PM EEST
Moon 9:01 AM EEST (6/13) 10:40 PM EEST (6/13)
Length of Visible Light 16h 04m
Length of Day
14h 58m
Waxing Crescent, 19% of the Moon is Illuminated
Jun 13
Waxing Crescent
Jun 16
First Quarter
Jun 23
Full
Jun 30
Last Quarter
Jul 8
New

Hourly Weather History & Observations

Time (EEST) Temp. Windchill Dew Point Humidity Pressure Visibility Wind Dir Wind Speed Gust Speed Precip Events Conditions
12:20 AM 50.0 °F - 46.4 °F 87% 29.95 in - Calm Calm - N/A   Clear
12:50 AM 48.2 °F - 44.6 °F 87% 29.98 in - SW 2.3 mph - N/A   Clear
1:20 AM 46.4 °F - 44.6 °F 93% 29.95 in - Variable 1.2 mph - N/A   Clear
1:50 AM 44.6 °F - 42.8 °F 93% 29.95 in - Variable 2.3 mph - N/A   Clear
2:20 AM 44.6 °F - 42.8 °F 93% 29.95 in - Variable 2.3 mph - N/A   Clear
2:50 AM 44.6 °F 42.2 °F 42.8 °F 93% 29.95 in - SSW 4.6 mph - N/A   Clear
3:00 AM 45 °F - 43 °F 89%  in 12 mi SSW 4.6 mph - -  
3:20 AM 44.6 °F 43.1 °F 42.8 °F 93% 29.98 in - South 3.5 mph - N/A   Clear
3:50 AM 44.6 °F 43.1 °F 41.0 °F 87% 29.98 in - ENE 3.5 mph - N/A   Clear
4:20 AM 46.4 °F 43.5 °F 42.8 °F 87% 29.98 in - ENE 5.8 mph - N/A   Clear
4:50 AM 44.6 °F - 41.0 °F 87% 29.98 in - Calm Calm - N/A   Clear
5:20 AM 44.6 °F - 41.0 °F 87% 29.98 in - Variable 1.2 mph - N/A   Clear
5:50 AM 46.4 °F - 42.8 °F 87% 29.98 in - Variable 1.2 mph - N/A   Clear
6:20 AM 50.0 °F - 46.4 °F 87% 29.98 in - Variable 1.2 mph - N/A   Clear
6:50 AM 57.2 °F - 50.0 °F 77% 29.98 in - Variable 1.2 mph - N/A   Clear
7:20 AM 59.0 °F - 50.0 °F 72% 29.98 in - ENE 12.7 mph - N/A   Clear
7:50 AM 60.8 °F - 48.2 °F 63% 29.98 in - East 13.8 mph - N/A   Clear
8:20 AM 62.6 °F - 48.2 °F 59% 29.98 in - East 17.3 mph - N/A   Clear
8:50 AM 64.4 °F - 48.2 °F 56% 29.98 in 6.2 mi East 17.3 mph - N/A   Partly Cloudy
9:00 AM 64 °F - 49 °F 47%  in 12 mi East 17.3 mph - -   Scattered Clouds
9:20 AM 64.4 °F - 50.0 °F 59% 29.98 in 6.2 mi East 18.4 mph - N/A   Partly Cloudy
9:50 AM 66.2 °F - 48.2 °F 52% 29.98 in 6.2 mi East 18.4 mph - N/A   Partly Cloudy
10:20 AM 68.0 °F - 48.2 °F 49% 29.98 in 6.2 mi ENE 17.3 mph - N/A   Partly Cloudy
10:50 AM 68.0 °F - 50.0 °F 52% 29.98 in 6.2 mi East 17.3 mph - N/A   Scattered Clouds
11:20 AM 69.8 °F - 50.0 °F 49% 29.98 in 6.2 mi East 17.3 mph - N/A   Scattered Clouds
11:50 AM 69.8 °F - 48.2 °F 46% 29.98 in 6.2 mi ENE 16.1 mph - N/A   Scattered Clouds
12:20 PM 73.4 °F - 48.2 °F 41% 29.95 in 6.2 mi ENE 15.0 mph - N/A   Scattered Clouds
12:50 PM 73.4 °F - 48.2 °F 41% 29.95 in 6.2 mi ENE 12.7 mph - N/A   Scattered Clouds
1:20 PM 71.6 °F - 48.2 °F 43% 29.95 in 6.2 mi NE 10.4 mph - N/A   Scattered Clouds
1:23 PM 71.6 °F - 50.0 °F 46% 29.95 in 6.2 mi NE 9.2 mph - N/A Rain Light Rain Showers
1:32 PM 71.6 °F - 48.2 °F 43% 29.95 in 6.2 mi NE 10.4 mph - N/A   Scattered Clouds
1:50 PM 77.0 °F - 51.8 °F 41% 29.95 in 6.2 mi NNE 11.5 mph - N/A   Scattered Clouds
2:20 PM 77.0 °F - 48.2 °F 36% 29.95 in 6.2 mi NNE 10.4 mph - N/A   Scattered Clouds
2:50 PM 78.8 °F - 44.6 °F 30% 29.95 in 6.2 mi Variable 5.8 mph - N/A   Scattered Clouds
3:00 PM 80 °F - 43 °F 17%  in 12 mi WNW 5.8 mph - -   Partly Cloudy
3:20 PM 78.8 °F - 37.4 °F 23% 29.95 in 6.2 mi Variable 5.8 mph - N/A   Scattered Clouds
3:50 PM 77.0 °F - 35.6 °F 22% 29.95 in 6.2 mi SSE 4.6 mph - N/A   Scattered Clouds
4:20 PM 77.0 °F - 41.0 °F 28% 29.92 in 6.2 mi Variable 5.8 mph - N/A   Scattered Clouds
4:50 PM 77.0 °F - 39.2 °F 26% 29.92 in 6.2 mi South 8.1 mph - N/A   Scattered Clouds
5:20 PM 77.0 °F - 42.8 °F 29% 29.92 in 6.2 mi South 5.8 mph - N/A   Scattered Clouds
5:50 PM 75.2 °F - 41.0 °F 29% 29.92 in 6.2 mi South 5.8 mph - N/A   Scattered Clouds
6:20 PM 75.2 °F - 39.2 °F 27% 29.92 in 6.2 mi SSW 5.8 mph - N/A   Scattered Clouds
6:50 PM 71.6 °F - 48.2 °F 43% 29.92 in 6.2 mi Variable 2.3 mph - N/A   Partly Cloudy
7:20 PM 68.0 °F - 42.8 °F 40% 29.92 in 6.2 mi South 3.5 mph - N/A   Partly Cloudy
7:50 PM 66.2 °F - 42.8 °F 43% 29.95 in 6.2 mi South 4.6 mph - N/A   Partly Cloudy
8:20 PM 62.6 °F - 42.8 °F 48% 29.95 in 6.2 mi SSW 4.6 mph - N/A   Partly Cloudy
8:50 PM 62.6 °F - 42.8 °F 48% 29.95 in - SSW 4.6 mph - N/A   Clear
9:00 PM 63 °F - 42 °F 35%  in 12 mi SSW 3.5 mph - -  
9:20 PM 59.0 °F - 46.4 °F 63% 29.98 in - NW 4.6 mph - N/A   Clear
9:50 PM 55.4 °F - 48.2 °F 77% 29.98 in - Variable 1.2 mph - N/A   Clear
10:20 PM 55.4 °F - 48.2 °F 77% 29.98 in - East 3.5 mph - N/A   Clear
10:50 PM 51.8 °F - 44.6 °F 76% 29.98 in - Variable 1.2 mph - N/A   Clear
11:20 PM 51.8 °F - 44.6 °F 76% 29.98 in - Variable 1.2 mph - N/A   Clear
11:50 PM 50.0 °F - 44.6 °F 82% 29.98 in - North 2.3 mph - N/A   Clear